TimePST,TemperatureF,Dew PointF,Humidity,Sea Level PressureIn,VisibilityMPH,Wind Direction,Wind SpeedMPH,Gust SpeedMPH,PrecipitationIn,Events,Conditions,WindDirDegrees,DateUTC
12:53 AM,53.1,43.0,69,30.09,10.0,SSE,3.5,-,N/A,,Clear,160,2012-11-23 08:53:00
1:53 AM,54.0,42.1,64,30.09,10.0,ENE,3.5,-,N/A,,Clear,60,2012-11-23 09:53:00
2:53 AM,52.0,42.1,69,30.09,10.0,ENE,4.6,-,N/A,,Clear,70,2012-11-23 10:53:00
3:53 AM,53.1,41.0,64,30.08,10.0,NE,6.9,-,N/A,,Clear,50,2012-11-23 11:53:00
5:53 AM,54.0,39.0,57,30.09,10.0,ENE,5.8,-,N/A,,Clear,60,2012-11-23 13:53:00
6:53 AM,52.0,39.0,61,30.12,10.0,NE,5.8,-,N/A,,Clear,50,2012-11-23 14:53:00
7:53 AM,59.0,39.0,48,30.13,10.0,ENE,4.6,-,N/A,,Clear,60,2012-11-23 15:53:00
8:53 AM,68.0,39.9,36,30.13,10.0,ENE,5.8,-,N/A,,Clear,70,2012-11-23 16:53:00
9:53 AM,77.0,36.0,23,30.13,10.0,ENE,6.9,-,N/A,,Clear,60,2012-11-23 17:53:00
10:53 AM,82.0,32.0,16,30.11,10.0,ENE,4.6,-,N/A,,Clear,70,2012-11-23 18:53:00
11:53 AM,82.9,30.0,15,30.08,10.0,Variable,5.8,-,N/A,,Clear,0,2012-11-23 19:53:00
12:53 PM,86.0,28.0,12,30.06,10.0,NNE,8.1,-,N/A,,Clear,30,2012-11-23 20:53:00
1:53 PM,87.1,27.0,11,30.04,10.0,NNE,4.6,-,N/A,,Clear,30,2012-11-23 21:53:00
2:53 PM,87.1,28.0,12,30.03,10.0,Variable,4.6,-,N/A,,Clear,0,2012-11-23 22:53:00
3:53 PM,84.0,28.9,14,30.03,10.0,North,5.8,-,N/A,,Clear,360,2012-11-23 23:53:00
4:53 PM,79.0,28.0,15,30.04,10.0,Variable,3.5,-,N/A,,Clear,0,2012-11-24 00:53:00
5:53 PM,73.9,30.0,20,30.04,10.0,Calm,Calm,-,N/A,,Clear,0,2012-11-24 01:53:00
6:53 PM,72.0,30.9,22,30.06,10.0,East,3.5,-,N/A,,Clear,90,2012-11-24 02:53:00
7:53 PM,68.0,30.9,25,30.06,10.0,ENE,5.8,-,N/A,,Clear,60,2012-11-24 03:53:00
8:53 PM,68.0,30.0,24,30.07,10.0,ENE,5.8,-,N/A,,Clear,70,2012-11-24 04:53:00
10:53 PM,64.0,33.1,31,30.07,10.0,NE,4.6,-,N/A,,Clear,40,2012-11-24 06:53:00
11:53 PM,62.1,33.1,34,30.07,10.0,Calm,Calm,-,N/A,,Clear,0,2012-11-24 07:53:00